Weather History for Lambertville, MI

Change the Weather History Date:

Thursday, April 18, 2013

  Actual Average (KTOL) Record (KTOL)
Temperature  
Mean Temperature 62 °F 50 °F  
Max Temperature 80 °F 61 °F 88 °F (1977)
Min Temperature 45 °F 40 °F 12 °F (1875)
Degree Days  
Heating Degree Days 2 15  
Month to date heating degree days 324  
Since 1 July heating degree days 5750  
Cooling Degree Days 0 0  
Month to date cooling degree days 0  
Year to date cooling degree days 0  
Growing Degree Days 12 (Base 50)    
Moisture  
Dew Point 53 °F    
Average Humidity 76    
Maximum Humidity 92    
Minimum Humidity 48    
Precipitation  
Precipitation 0.00 in 0.12 in 1.57 in (1969)
Month to date precipitation 1.92  
Year to date precipitation 8.52  
Snow  
Snow 0.00 in 0.00 in - ()
Month to date snowfall 1.1  
Since 1 July snowfall 37.3  
Snow Depth -    
Sea Level Pressure  
Sea Level Pressure 29.76 in    
Wind  
Wind Speed 10 mph (South)    
Max Wind Speed 29 mph    
Max Gust Speed 43 mph    
Visibility 9 miles    
Events Rain    
T = Trace of Precipitation, MM = Missing Value Source: NWS Daily Summary

Daily Weather History Graph

Daily Weather History Graph

Search for Another Location

Airport:

Trip Planner

Search our weather history database for the weather conditions in past years. The results will help you decide how hot, cold, wet, or windy it might be!

Date:

Astronomy

Apr. 18, 2013 Rise Set
Actual Time 6:49 AM EDT 8:18 PM EDT
Civil Twilight 6:20 AM EDT 8:48 PM EDT
Nautical Twilight 5:45 AM EDT 9:23 PM EDT
Astronomical Twilight 5:08 AM EDT 10:00 PM EDT
Moon 12:59 PM EDT (4/18) 2:34 AM EDT (4/18)
Length of Visible Light 14h 27m
Length of Day
13h 29m
First Quarter, 51% of the Moon is Illuminated
Apr 18
First Quarter
Apr 25
Full
May 2
Last Quarter
May 9
New
May 18
First Quarter

Hourly Weather History & Observations

Time (EDT) Temp. Windchill Dew Point Humidity Pressure Visibility Wind Dir Wind Speed Gust Speed Precip Events Conditions
12:15 AM 45.3 °F 41.6 °F 40.1 °F 82% 30.05 in 10.0 mi ENE 6.9 mph - N/A Rain Light Rain
12:35 AM 45.3 °F 42.3 °F 40.8 °F 84% 30.03 in 10.0 mi ENE 5.8 mph - N/A Rain Light Rain
12:55 AM 45.5 °F 41.3 °F 41.2 °F 85% 30.00 in 10.0 mi East 8.1 mph - N/A   Overcast
1:15 AM 45.5 °F 39.9 °F 41.0 °F 84% 29.98 in 10.0 mi East 11.5 mph 18.4 mph N/A   Mostly Cloudy
1:35 AM 46.6 °F - 40.5 °F 79% 29.96 in 10.0 mi East 13.8 mph 21.9 mph N/A   Mostly Cloudy
1:55 AM 47.3 °F - 39.2 °F 73% 29.95 in 10.0 mi East 9.2 mph 17.3 mph N/A   Overcast
2:15 AM 46.8 °F - 39.2 °F 75% 29.95 in 10.0 mi ESE 10.4 mph 16.1 mph N/A   Mostly Cloudy
2:35 AM 46.4 °F 41.9 °F 38.8 °F 75% 29.93 in 10.0 mi East 9.2 mph - N/A   Scattered Clouds
2:55 AM 46.6 °F - 39.2 °F 75% 29.92 in 10.0 mi ESE 11.5 mph 17.3 mph N/A   Mostly Cloudy
3:15 AM 46.4 °F 41.5 °F 39.4 °F 77% 29.90 in 10.0 mi ESE 10.4 mph - N/A   Overcast
3:35 AM 46.4 °F 41.5 °F 39.7 °F 78% 29.88 in 10.0 mi East 10.4 mph - N/A   Mostly Cloudy
3:55 AM 46.4 °F 41.9 °F 40.1 °F 79% 29.87 in 10.0 mi ESE 9.2 mph - N/A   Overcast
4:15 AM 46.4 °F 42.4 °F 40.5 °F 80% 29.86 in 10.0 mi ESE 8.1 mph - N/A   Mostly Cloudy
4:35 AM 46.4 °F 43.5 °F 40.8 °F 81% 29.85 in 10.0 mi East 5.8 mph - N/A   Mostly Cloudy
4:55 AM 46.8 °F - 41.5 °F 82% 29.84 in 10.0 mi ESE 5.8 mph - N/A   Mostly Cloudy
5:15 AM 46.8 °F - 42.1 °F 84% 29.84 in 10.0 mi ESE 3.5 mph - N/A   Mostly Cloudy
5:35 AM 47.3 °F - 43.0 °F 85% 29.83 in 10.0 mi ESE 4.6 mph - N/A   Mostly Cloudy
5:55 AM 48.9 °F - 44.8 °F 86% 29.82 in 10.0 mi SE 3.5 mph - N/A   Mostly Cloudy
6:15 AM 49.8 °F - 45.7 °F 86% 29.82 in 10.0 mi SE 4.6 mph - N/A   Mostly Cloudy
6:35 AM 51.6 °F - 48.2 °F 88% 29.80 in 7.0 mi SSE 6.9 mph - N/A   Scattered Clouds
6:55 AM 55.6 °F - 51.4 °F 86% 29.80 in 7.0 mi South 9.2 mph - N/A   Clear
7:15 AM 55.8 °F - 51.4 °F 85% 29.79 in 7.0 mi SSE 8.1 mph - N/A   Clear
7:35 AM 57.6 °F - 53.1 °F 85% 29.78 in 7.0 mi SSE 8.1 mph - N/A   Clear
7:55 AM 60.3 °F - 55.2 °F 83% 29.78 in 10.0 mi South 8.1 mph - N/A   Clear
8:15 AM 63.1 °F - 56.3 °F 78% 29.77 in 10.0 mi South 9.2 mph 17.3 mph N/A   Clear
8:35 AM 65.5 °F - 57.2 °F 75% 29.77 in 10.0 mi South 10.4 mph 17.3 mph N/A   Clear
8:55 AM 67.1 °F - 57.6 °F 71% 29.76 in 10.0 mi South 12.7 mph 25.3 mph N/A   Clear
9:15 AM 68.4 °F - 58.3 °F 70% 29.76 in 10.0 mi SSW 13.8 mph 25.3 mph N/A   Clear
9:35 AM 69.6 °F - 58.8 °F 68% 29.75 in 10.0 mi SSW 16.1 mph 28.8 mph N/A   Clear
9:55 AM 70.5 °F - 59.5 °F 68% 29.74 in 10.0 mi South 15.0 mph 25.3 mph N/A   Clear
10:15 AM 72.0 °F - 60.1 °F 66% 29.73 in 10.0 mi South 20.7 mph 31.1 mph N/A   Clear
10:35 AM 73.8 °F - 60.6 °F 63% 29.72 in 10.0 mi South 19.6 mph 31.1 mph N/A   Clear
10:55 AM 75.0 °F - 61.2 °F 62% 29.72 in 10.0 mi SSW 16.1 mph 29.9 mph N/A   Clear
11:15 AM 76.1 °F - 61.2 °F 60% 29.70 in 10.0 mi South 20.7 mph 33.4 mph N/A   Scattered Clouds
11:35 AM 77.2 °F - 61.2 °F 58% 29.69 in 10.0 mi South 23.0 mph 39.1 mph N/A   Scattered Clouds
11:55 AM 77.9 °F - 61.0 °F 56% 29.70 in 10.0 mi SSW 15.0 mph 28.8 mph N/A   Clear
12:15 PM 79.0 °F - 61.0 °F 54% 29.69 in 10.0 mi South 19.6 mph 38.0 mph N/A   Clear
12:35 PM 78.8 °F - 60.6 °F 54% 29.69 in 10.0 mi SSW 13.8 mph 32.2 mph N/A   Scattered Clouds
12:55 PM 78.8 °F - 59.9 °F 52% 29.68 in 10.0 mi SSW 21.9 mph 35.7 mph N/A   Mostly Cloudy
1:15 PM 79.0 °F - 60.1 °F 52% 29.68 in 10.0 mi SSW 19.6 mph 35.7 mph N/A   Mostly Cloudy
1:35 PM 79.2 °F - 60.1 °F 52% 29.67 in 10.0 mi SSW 23.0 mph 36.8 mph N/A   Mostly Cloudy
1:55 PM 78.8 °F - 59.4 °F 51% 29.66 in 10.0 mi SSW 24.2 mph 39.1 mph N/A   Overcast
2:15 PM 79.2 °F - 59.5 °F 51% 29.65 in 10.0 mi SSW 20.7 mph 42.6 mph N/A   Overcast
2:35 PM 80.8 °F - 59.4 °F 48% 29.65 in 10.0 mi SSW 28.8 mph 39.1 mph N/A   Overcast
2:55 PM 80.6 °F - 59.2 °F 48% 29.65 in 10.0 mi SSW 26.5 mph 35.7 mph N/A   Mostly Cloudy
3:15 PM 79.7 °F - 59.0 °F 49% 29.67 in 10.0 mi SW 18.4 mph 36.8 mph N/A   Mostly Cloudy
3:35 PM 66.0 °F - 58.1 °F 76% 29.68 in 10.0 mi West 13.8 mph 21.9 mph N/A Rain Light Rain
3:55 PM 64.9 °F - 57.9 °F 78% 29.70 in 10.0 mi WSW 12.7 mph 19.6 mph N/A Rain Rain
4:35 PM 64.0 °F - 58.8 °F 83% 29.68 in 7.0 mi SW 9.2 mph - N/A Rain Rain
5:15 PM 64.6 °F - 59.0 °F 82% 29.68 in 10.0 mi WSW 9.2 mph - N/A Rain Light Rain
5:35 PM 64.6 °F - 58.6 °F 81% 29.70 in 10.0 mi WSW 10.4 mph - N/A   Overcast
5:55 PM 63.9 °F - 58.3 °F 82% 29.68 in 10.0 mi WSW 10.4 mph 16.1 mph N/A Rain Light Rain
6:15 PM 63.0 °F - 58.1 °F 84% 29.68 in 10.0 mi SW 5.8 mph - N/A Rain Rain
6:35 PM 62.1 °F - 58.1 °F 87% 29.69 in 7.0 mi WSW 6.9 mph - N/A Rain Rain
6:55 PM 61.7 °F - 57.9 °F 87% 29.68 in 10.0 mi WSW 12.7 mph - N/A Rain Light Rain
7:15 PM 61.3 °F - 57.6 °F 87% 29.70 in 4.0 mi WSW 9.2 mph 18.4 mph N/A Rain Heavy Rain
7:35 PM 61.0 °F - 57.6 °F 88% 29.69 in 10.0 mi WSW 6.9 mph - N/A Rain Light Rain
7:55 PM 61.2 °F - 57.2 °F 87% 29.69 in 7.0 mi WSW 10.4 mph - N/A Rain Rain
8:15 PM 60.8 °F - 56.7 °F 86% 29.69 in 7.0 mi SW 5.8 mph 17.3 mph N/A Rain Rain
8:35 PM 60.8 °F - 56.7 °F 86% 29.68 in 10.0 mi SSW 6.9 mph - N/A Rain Rain
8:55 PM 60.4 °F - 56.5 °F 87% 29.70 in 7.0 mi SW 8.1 mph - N/A Rain Rain
9:15 PM 60.3 °F - 56.5 °F 87% 29.71 in 7.0 mi SSW 6.9 mph - N/A Rain Light Rain
9:35 PM 59.9 °F - 56.5 °F 88% 29.71 in 7.0 mi SSW 8.1 mph - N/A Rain Light Rain
9:55 PM 59.9 °F - 56.7 °F 89% 29.70 in 10.0 mi SSW 5.8 mph - N/A Rain Light Rain
10:15 PM 59.9 °F - 56.5 °F 88% 29.68 in 10.0 mi Calm Calm - N/A   Overcast
10:35 PM 59.7 °F - 56.3 °F 88% 29.66 in 10.0 mi Calm Calm - N/A   Overcast
10:55 PM 59.0 °F - 56.3 °F 91% 29.65 in 10.0 mi Calm Calm - N/A   Overcast
11:35 PM 59.0 °F - 56.5 °F 91% 29.62 in 10.0 mi Calm Calm - N/A   Overcast
11:55 PM 58.6 °F - 56.3 °F 92% 29.60 in 10.0 mi Calm Calm - N/A   Overcast